User: anonymous   Login
Location: Unspecified
(0.0000°N, 0.0000°E)
Time: 17:11:14
(UTC+02:00)
Language:

Resurs 01 Rocket - Orbit

View from above orbital plane
View from above orbital plane
View from above satellite
View from above satellite

Ground track
Ground track

The orbit data is extracted from the following two-line orbital elements,

1 23343U 94074B   16274.13955987  .00000040  00000-0  13397-4 0  9997
2 23343  98.1862 302.1597 0006940 175.7034 225.9447 14.76673253178456
Epoch (UTC): 30 September 2016 03:20:57
Eccentricity: 0.0006940
inclination: 98.1862°
perigee height: 635 km
apogee height: 645 km
right ascension of ascending node: 302.1597°
argument of perigee: 175.7034°
revolutions per day: 14.76673253
mean anomaly at epoch: 225.9447°
orbit number at epoch: 17845

The dashed part of the orbit path shows where the satellite is in the earth's shadow,  

DLR